Mount Carmel, IL

11:00 PM CST on December 09, 2019 (GMT -0600)
Mount Carmel Municipal

Weather History for KAJG - October, 2019

Change the Weather History Date:

Friday, October 18, 2019

  Actual Average (KLWV) Record (KLWV)
Temperature  
Mean Temperature 48 °F -  
Max Temperature 65 °F 65 °F 87 °F (2007)
Min Temperature 32 °F 42 °F 28 °F (2015)
Degree Days  
Heating Degree Days 17    
Moisture  
Dew Point 37 °F    
Average Humidity 70    
Maximum Humidity 98    
Minimum Humidity 36    
Precipitation  
Precipitation 0.00 in - - ()
Sea Level Pressure  
Sea Level Pressure 30.02 in    
Wind  
Wind Speed 5 mph (SE)    
Max Wind Speed 10 mph    
Max Gust Speed 16 mph    
Visibility 10 miles    
Events      
Averages and records for this station are not official NWS values.
T = Trace of Precipitation, MM = Missing Value Source: NWS Daily Summary

Daily Weather History Graph

Daily Weather History Graph

Search for Another Location

Airport or City:

Astronomy

Oct. 18, 2019 Rise Set
Actual Time 7:02 AM CDT 6:08 PM CDT
Civil Twilight 6:35 AM CDT 6:35 PM CDT
Nautical Twilight 6:05 AM CDT 7:06 PM CDT
Astronomical Twilight 5:34 AM CDT 7:37 PM CDT
Moon 9:27 PM CDT (10/18) 11:32 AM CDT (10/18)
Length of Visible Light 11h 59m
Length of Day
11h 05m
Waning Gibbous, 78% of the Moon is Illuminated
Oct 18
Waning Gibbous
Oct 21
Last Quarter
Oct 27
New
Nov 4
First Quarter
Nov 12
Full

Hourly Weather History & Observations

Time (CDT) Temp. Windchill Dew Point Humidity Pressure Visibility Wind Dir Wind Speed Gust Speed Precip Events Conditions
12:15 AM 37.4 °F - 36.3 °F 96% 30.04 in 7.0 mi North - - N/A   Clear
12:35 AM 36.5 °F - 34.9 °F 94% 30.04 in 10.0 mi Calm Calm - N/A   Clear
12:55 AM 36.3 °F - 34.7 °F 94% 30.04 in 10.0 mi Calm Calm - N/A   Clear
1:15 AM 36.1 °F - 34.0 °F 92% 30.05 in 10.0 mi North - - N/A   Clear
1:35 AM 35.6 °F - 32.9 °F 90% 30.04 in 10.0 mi North - - N/A   Clear
1:55 AM 35.2 °F - 33.4 °F 93% 30.04 in 10.0 mi North - - N/A   Clear
2:15 AM 34.0 °F - 32.2 °F 93% 30.05 in 10.0 mi North - - N/A   Clear
2:35 AM 33.6 °F - 32.4 °F 95% 30.05 in 1.0 mi North - - N/A   Mostly Cloudy
2:55 AM 33.8 °F - 32.9 °F 96% 30.05 in 10.0 mi North - - N/A   Scattered Clouds
3:15 AM 35.1 °F - 34.2 °F 97% 30.05 in 10.0 mi North - - N/A   Clear
3:35 AM 33.8 °F - 32.4 °F 94% 30.05 in 10.0 mi North - - N/A   Clear
3:55 AM 34.7 °F - 33.1 °F 94% 30.04 in 10.0 mi North - - N/A   Clear
4:15 AM 34.2 °F - 32.7 °F 94% 30.05 in 7.0 mi North - - N/A   Clear
4:35 AM 33.4 °F - 32.2 °F 95% 30.05 in 10.0 mi North - - N/A   Clear
4:55 AM 33.1 °F - 32.0 °F 96% 30.06 in 10.0 mi North - - N/A   Clear
5:15 AM 33.8 °F - 32.5 °F 95% 30.05 in 10.0 mi North - - N/A   Clear
5:35 AM 33.3 °F - 32.0 °F 95% 30.06 in 10.0 mi North - - N/A   Clear
5:55 AM 33.3 °F 27.1 °F 32.4 °F 96% 30.06 in 10.0 mi NE 6.9 mph - N/A   Clear
6:15 AM 36.1 °F - 34.9 °F 95% 30.06 in 10.0 mi North - - N/A   Clear
6:35 AM 36.1 °F - 34.5 °F 94% 30.06 in 10.0 mi North - - N/A   Clear
6:55 AM 32.9 °F - 31.8 °F 96% 30.08 in 10.0 mi North - - N/A   Clear
7:15 AM 32.4 °F - 31.8 °F 98% 30.09 in 10.0 mi North - - N/A   Clear
7:55 AM 36.7 °F - 34.9 °F 93% 30.09 in 10.0 mi North - - N/A   Clear
8:20 AM 38.8 °F - 37.4 °F 95% 30.10 in 10.0 mi North - - N/A   Clear
8:35 AM 39.7 °F - 38.3 °F 95% 30.11 in 10.0 mi North - - N/A   Clear
8:55 AM 43.5 °F - 39.7 °F 87% 30.11 in 10.0 mi North - - N/A   Clear
9:15 AM 46.4 °F 44.3 °F 40.6 °F 80% 30.10 in 10.0 mi ESE 4.6 mph - N/A   Clear
9:35 AM 48.9 °F - 41.2 °F 75% 30.11 in 10.0 mi SE 5.8 mph - N/A   Clear
9:55 AM 51.1 °F - 40.8 °F 68% 30.10 in 10.0 mi SE 5.8 mph - N/A   Clear
10:15 AM 53.4 °F - 41.2 °F 63% 30.10 in 10.0 mi SE 5.8 mph - N/A   Clear
10:35 AM 56.1 °F - 40.5 °F 56% 30.09 in 10.0 mi SE 6.9 mph - N/A   Clear
10:55 AM 57.7 °F - 39.0 °F 50% 30.09 in 10.0 mi SSE 8.1 mph - N/A   Clear
11:15 AM 58.6 °F - 38.3 °F 47% 30.09 in 10.0 mi SE 6.9 mph - N/A   Clear
11:35 AM 59.5 °F - 38.8 °F 46% 30.08 in 10.0 mi SE 8.1 mph - N/A   Clear
11:55 AM 60.8 °F - 38.5 °F 44% 30.07 in 10.0 mi SE 5.8 mph - N/A   Clear
12:15 PM 61.3 °F - 38.7 °F 43% 30.07 in 10.0 mi North - - N/A   Clear
12:35 PM 61.3 °F - 37.4 °F 41% 30.06 in 10.0 mi SE 8.1 mph - N/A   Clear
12:55 PM 61.9 °F - 37.4 °F 40% 30.05 in 10.0 mi North - - N/A   Clear
1:15 PM 62.6 °F - 37.4 °F 39% 30.04 in 10.0 mi South 10.4 mph - N/A   Clear
1:35 PM 63.3 °F - 37.8 °F 39% 30.03 in 10.0 mi SSE 10.4 mph - N/A   Clear
1:55 PM 63.5 °F - 37.2 °F 38% 30.02 in 10.0 mi SE 9.2 mph - N/A   Clear
2:15 PM 64.2 °F - 37.4 °F 37% 30.01 in 10.0 mi South 6.9 mph - N/A   Clear
2:35 PM 64.2 °F - 37.4 °F 37% 30.00 in 10.0 mi East 6.9 mph 16.1 mph N/A   Clear
2:55 PM 64.9 °F - 37.2 °F 36% 29.99 in 10.0 mi SSE 9.2 mph - N/A   Clear
3:15 PM 64.6 °F - 37.4 °F 37% 29.99 in 10.0 mi SE 6.9 mph - N/A   Clear
3:35 PM 64.6 °F - 37.6 °F 37% 29.98 in 10.0 mi SE 9.2 mph - N/A   Clear
3:55 PM 64.8 °F - 37.9 °F 37% 29.98 in 10.0 mi North - - N/A   Clear
4:15 PM 64.8 °F - 37.8 °F 37% 29.98 in 10.0 mi SSE 8.1 mph - N/A   Clear
4:35 PM 64.4 °F - 37.9 °F 38% 29.97 in 10.0 mi SSE 9.2 mph - N/A   Clear
4:55 PM 63.7 °F - 37.6 °F 38% 29.97 in 10.0 mi SSE 8.1 mph - N/A   Clear
5:15 PM 62.8 °F - 38.1 °F 40% 29.97 in 10.0 mi SSE 9.2 mph - N/A   Clear
5:35 PM 61.9 °F - 38.7 °F 42% 29.97 in 10.0 mi North - - N/A   Clear
5:55 PM 59.2 °F - 38.8 °F 47% 29.96 in 10.0 mi SE 5.8 mph - N/A   Clear
6:15 PM 56.1 °F - 38.3 °F 51% 29.95 in 10.0 mi North - - N/A   Clear
6:35 PM 52.0 °F - 37.2 °F 57% 29.95 in 10.0 mi North - - N/A   Clear
6:55 PM 50.2 °F - 39.2 °F 66% 29.95 in 10.0 mi East 5.8 mph - N/A   Clear
7:15 PM 48.9 °F - 37.8 °F 65% 29.95 in 10.0 mi East 5.8 mph - N/A   Clear
7:35 PM 47.7 °F - 37.2 °F 67% 29.94 in 10.0 mi North - - N/A   Clear
7:55 PM 47.3 °F - 38.3 °F 71% 29.95 in 10.0 mi North - - N/A   Clear
8:15 PM 47.7 °F - 39.2 °F 72% 29.95 in 10.0 mi North - - N/A   Clear
8:35 PM 47.5 °F - 39.4 °F 73% 29.94 in 10.0 mi North - - N/A   Clear
8:55 PM 46.8 °F - 39.2 °F 75% 29.94 in 10.0 mi East 4.6 mph - N/A   Clear
9:15 PM 45.7 °F - 38.5 °F 76% 29.94 in 10.0 mi North - - N/A   Clear
9:35 PM 46.2 °F - 38.8 °F 75% 29.94 in 10.0 mi North - - N/A   Clear
9:55 PM 45.9 °F - 39.4 °F 78% 29.95 in 10.0 mi North - - N/A   Clear
10:15 PM 46.4 °F 44.3 °F 39.4 °F 77% 29.94 in 10.0 mi East 4.6 mph - N/A   Clear
10:35 PM 43.7 °F - 38.3 °F 81% 29.94 in 10.0 mi North - - N/A   Clear
10:55 PM 44.1 °F - 38.3 °F 80% 29.93 in 10.0 mi North - - N/A   Clear
11:15 PM 42.1 °F - 36.7 °F 81% 29.93 in 10.0 mi North - - N/A   Clear
11:35 PM 41.9 °F - 37.6 °F 85% 29.92 in 10.0 mi North - - N/A   Clear
11:55 PM 43.2 °F - 38.7 °F 84% 29.91 in 10.0 mi North - - N/A   Clear